Wind_Speed
85 85 85 86 86 87 87 88 88 89 89 90 90 90 90 89 88 87 86 86 86 86 86 87 87 87 87 88 88 88 88 88 88 88 88 87 88 88 88 89 88 88 89 89 89 89 89 89 89 89 89 90
84 85 86 86 87 87 87 87 87 87 87 88 88 88 87 88 88 88 89 89 90 91 92 92 92 92 92 93 93 93 93 93 92 92 91 91 91 92 92 93 93 93 93 94 94 94 94 94 94 94 94 95
87 87 86 86 86 86 86 87 87 87 88 88 88 88 89 90 90 91 92 94 95 96 97 97 97 97 97 97 97 97 97 96 96 95 95 95 96 96 96 97 97 97 98 98 98 98 99 98 98 98 98 99
91 90 89 89 88 89 89 90 90 91 92 92 92 92 92 93 93 94 96 97 99 100 100 100 100 100 100 101 101 101 101 101 100 100 100 100 100 100 100 100 100 100 100 100 100 100 101 101 101 101 100 100
99 98 97 96 96 96 95 95 96 96 97 97 97 97 97 97 97 98 98 100 101 102 103 103 103 102 102 103 103 104 104 105 105 104 105 105 105 104 103 103 102 101 101 100 100 100 101 101 101 101 101 101
104 103 103 102 102 102 101 101 100 101 101 101 101 101 101 101 101 101 101 102 103 103 104 104 104 103 104 104 105 106 106 107 107 108 108 107 107 106 105 104 103 102 101 101 100 100 100 101 101 101 101 101
105 105 105 105 105 105 105 104 104 103 103 102 102 103 103 103 103 103 103 103 103 103 103 103 103 104 105 105 106 106 106 107 108 108 108 108 107 107 106 105 104 104 103 102 102 102 102 101 102 102 102 101
105 105 105 106 107 107 107 107 106 105 104 103 103 104 104 104 104 104 104 104 104 104 103 103 104 104 105 105 106 106 106 106 106 107 107 108 108 107 107 106 106 105 105 104 104 103 103 103 103 103 103 103
105 105 106 107 108 108 108 108 108 107 106 105 105 106 106 106 106 106 106 106 106 106 106 105 105 105 106 106 106 106 106 106 106 107 108 108 108 108 107 107 106 106 106 106 105 105 105 104 104 104 104 104
105 106 107 108 108 109 109 109 108 108 108 108 108 109 109 109 109 109 109 110 109 109 108 108 107 107 107 107 107 107 107 107 107 108 108 108 108 108 108 107 107 107 106 106 106 106 106 106 105 105 105 105
106 107 107 108 109 110 110 110 110 110 110 110 111 111 112 112 112 112 112 112 111 110 110 109 108 108 108 108 108 108 108 108 108 109 109 109 109 108 108 108 107 107 107 107 107 107 107 106 106 106 106 106
108 108 109 110 110 111 111 111 112 112 112 112 113 114 114 114 113 114 113 113 112 111 110 110 110 109 109 109 109 109 109 110 110 110 110 110 110 109 109 109 108 108 108 108 108 108 108 107 107 107 107 107
110 110 110 111 112 112 113 113 113 113 113 113 114 115 115 115 114 114 114 113 112 112 111 111 111 111 110 110 111 111 111 111 111 111 111 111 111 111 111 110 110 109 109 109 109 109 109 109 108 108 108 108
111 111 111 112 113 113 113 114 114 114 114 114 115 116 115 115 115 114 114 114 113 113 113 113 112 112 112 112 112 113 113 113 113 113 113 113 113 113 112 112 112 111 110 110 110 110 110 110 110 109 109 109
113 112 113 113 114 114 114 115 115 115 115 115 116 116 116 115 115 115 115 115 115 115 114 114 114 114 114 114 115 115 115 116 116 115 115 115 115 115 114 114 113 112 111 111 110 110 110 111 111 110 110 110
113 113 113 113 114 114 115 115 115 116 116 116 116 116 116 116 116 116 117 117 116 116 116 116 116 116 116 117 117 117 118 118 118 117 117 117 116 116 115 115 114 113 112 112 111 111 111 111 112 112 112 111
113 114 114 114 114 115 115 116 116 116 117 117 117 117 117 117 117 118 118 118 118 118 118 118 118 118 118 119 119 119 119 119 119 118 118 118 117 117 116 115 115 114 113 113 112 112 112 112 113 113 113 113
113 114 114 114 114 115 116 116 116 117 117 118 118 118 118 119 119 119 119 119 119 119 119 119 119 119 119 119 119 119 119 119 119 119 118 118 118 117 117 116 116 115 115 114 114 113 113 113 114 114 114 114
112 113 113 114 114 115 115 115 116 117 117 118 118 118 118 118 119 119 119 119 119 119 119 119 119 120 120 120 120 119 119 119 119 118 118 118 118 117 117 117 116 116 116 115 115 115 115 115 115 115 115 115
113 113 114 114 114 115 115 116 116 117 117 117 117 118 118 118 118 118 119 119 119 119 120 120 120 121 121 120 120 119 119 119 119 119 118 118 118 118 118 117 117 117 117 116 116 116 116 116 116 116 116 116
114 115 116 116 116 116 117 117 117 118 118 118 118 118 118 118 118 119 119 120 120 120 120 120 120 121 121 121 120 120 119 119 119 119 118 118 118 118 118 118 118 118 118 117 117 117 118 118 118 118 118 118
116 117 117 117 118 118 118 118 119 119 118 118 119 119 119 119 119 119 119 120 119 119 118 118 118 118 119 119 119 119 119 119 119 119 119 118 118 118 118 118 119 119 119 118 119 119 119 119 119 119 119 119
117 118 118 118 118 118 118 118 118 118 118 118 118 119 119 119 118 118 118 118 118 117 117 116 115 115 116 117 117 118 118 118 118 119 119 118 119 119 119 119 120 120 120 120 120 120 120 120 120 121 121 121
117 117 117 117 117 117 117 117 117 117 117 117 117 118 118 118 117 117 117 118 118 117 117 116 115 114 114 115 116 116 116 117 117 118 118 118 119 119 120 121 121 121 121 121 121 121 122 122 122 122 122 122
114 114 114 115 115 115 116 116 116 116 116 116 117 117 118 118 118 118 118 118 118 118 117 116 115 115 115 115 115 115 116 116 117 117 118 118 119 119 120 121 121 122 122 122 122 123 123 123 123 123 123 123
111 112 112 113 113 114 114 115 115 115 116 116 116 117 117 118 119 119 118 118 118 117 117 116 116 116 116 116 117 117 117 117 117 118 118 119 119 120 120 121 122 122 122 123 123 124 124 124 124 124 124 124
110 110 111 111 112 113 113 114 114 115 115 115 116 116 117 118 118 118 118 118 118 118 118 117 117 118 118 119 119 119 119 119 119 119 120 120 121 121 121 122 122 123 123 123 124 124 124 124 124 124 124 124
109 109 110 110 111 111 112 112 113 114 114 115 115 116 117 118 118 118 118 119 119 119 119 120 120 120 121 121 122 122 121 121 121 121 121 121 121 121 121 122 123 124 123 123 124 124 124 124 124 123 123 124
106 107 107 108 108 109 110 112 113 114 115 116 117 117 118 119 119 120 120 120 120 121 121 121 121 121 121 122 122 122 122 121 121 121 121 121 121 121 121 121 122 123 122 122 123 124 123 123 123 122 123 124
105 106 107 108 109 110 112 113 114 115 117 118 118 118 119 120 121 121 121 121 121 121 121 121 121 120 120 120 120 121 121 120 120 120 120 120 121 121 121 121 121 121 121 122 122 123 123 123 123 122 123 124
107 108 109 110 111 113 114 115 116 117 118 118 118 119 119 120 121 121 121 121 120 120 120 119 119 119 118 119 119 119 119 119 120 120 120 120 120 120 120 121 120 121 121 122 121 121 122 122 122 122 122 123
Wind_Direction
257 257 257 258 259 260 261 263 264 265 266 267 268 268 268 268 268 268 269 270 271 273 273 274 274 274 275 275 275 276 276 277 277 277 278 278 278 279 279 279 279 278 278 277 277 277 276 276 276 276 277 277
257 257 258 259 260 261 263 264 265 266 267 268 268 268 268 268 269 269 271 272 274 275 276 276 276 276 276 276 277 277 277 277 278 278 279 279 280 280 280 280 280 280 279 279 278 278 278 277 277 277 277 278
258 259 259 260 261 262 263 264 266 267 267 268 269 269 270 270 271 271 272 273 275 276 277 277 277 276 277 277 277 277 277 277 278 278 279 279 280 280 280 280 280 280 280 280 279 279 278 277 277 277 277 277
256 257 258 258 259 260 261 262 264 265 266 267 268 268 269 270 270 271 272 274 275 276 276 277 277 277 277 277 277 277 277 277 278 278 279 279 280 280 280 280 280 279 279 279 278 278 277 277 276 276 276 275
256 256 257 257 258 259 260 261 263 264 265 265 266 266 267 268 268 269 271 272 273 275 275 276 276 276 276 277 277 277 277 277 277 277 278 278 279 279 279 279 278 278 277 277 276 276 276 275 275 275 275 275
258 258 258 259 259 260 261 262 263 264 265 265 266 266 266 267 268 269 270 270 271 272 273 274 274 274 275 275 275 275 275 275 275 275 276 277 277 278 278 278 277 277 276 276 275 275 275 274 274 274 274 274
259 260 260 260 261 261 262 263 265 265 265 265 265 266 266 266 267 268 269 270 270 271 272 272 272 272 273 273 273 273 273 273 274 274 275 276 276 277 277 277 277 276 276 276 275 275 274 274 274 274 273 273
260 261 261 261 261 262 263 264 265 265 265 265 265 265 265 266 266 267 268 269 269 270 270 271 271 271 271 272 272 273 273 273 274 274 275 275 275 276 276 276 276 276 276 276 275 275 274 274 274 274 273 273
260 261 261 262 262 263 264 265 265 265 265 265 265 265 266 266 266 267 268 268 269 269 270 270 270 270 271 271 272 272 273 273 273 274 274 274 274 275 275 275 275 275 275 275 275 275 275 275 274 274 274 273
261 261 261 262 263 264 264 265 265 265 266 266 266 266 266 267 267 267 267 268 268 269 269 270 270 270 270 271 271 272 272 272 272 273 273 273 273 274 274 274 274 275 275 275 275 275 275 275 274 274 274 274
261 261 262 262 263 263 264 265 265 265 266 266 266 267 267 267 267 267 268 268 268 269 269 269 270 270 270 271 271 271 271 271 271 272 272 272 272 273 273 274 274 274 274 274 274 274 274 274 274 274 274 274
262 262 262 263 263 263 264 264 265 265 266 266 267 267 267 267 267 268 268 268 269 269 269 269 269 270 270 270 270 271 271 271 271 271 272 272 272 273 273 274 274 274 274 274 274 274 274 274 274 274 273 273
262 263 263 264 264 264 264 265 265 266 266 267 267 267 267 267 268 268 268 269 269 269 269 269 270 270 270 270 271 271 271 271 271 272 272 273 273 274 274 274 274 274 274 274 274 274 274 274 273 273 273 273
263 263 263 264 264 265 265 266 266 266 267 267 267 267 267 268 268 268 269 269 269 269 270 270 270 270 271 271 271 271 272 272 272 273 273 273 274 274 274 274 274 274 274 274 274 274 274 274 273 273 273 273
263 263 263 264 264 265 265 266 266 267 267 267 267 267 268 268 268 269 269 269 269 270 270 270 270 271 271 271 272 272 272 272 273 273 273 273 273 273 273 273 273 273 273 273 273 273 273 273 273 273 273 273
263 263 263 264 264 265 265 266 266 266 267 267 267 268 268 268 269 269 269 269 270 270 270 271 271 271 272 272 272 272 272 273 273 273 273 273 273 273 273 273 273 273 272 272 272 272 273 273 273 273 273 273
263 264 264 264 265 265 265 266 266 267 267 267 268 268 268 269 269 269 269 270 270 270 271 271 271 271 272 272 272 272 272 272 272 272 272 272 272 272 272 272 272 272 272 272 272 272 272 272 272 273 273 273
264 264 265 265 265 266 266 266 267 267 267 267 268 268 268 269 269 269 270 270 270 271 271 271 271 271 271 271 271 272 272 272 272 272 272 272 272 272 272 272 272 272 272 272 272 272 272 272 272 273 273 273
263 264 265 265 265 266 266 266 267 267 267 267 268 268 269 269 269 270 270 270 270 271 271 271 271 271 271 271 271 271 271 271 272 272 272 272 272 272 272 272 272 272 272 272 272 272 272 272 273 273 273 273
264 264 265 265 265 266 266 266 267 267 267 268 268 268 269 269 269 270 270 270 270 270 271 271 271 271 271 271 271 271 271 271 272 272 272 272 272 272 272 272 272 273 273 273 273 273 273 273 273 273 273 273
264 265 265 265 266 266 266 267 267 267 268 268 268 269 269 269 269 270 270 270 271 271 271 271 271 271 271 271 271 271 271 271 272 272 272 272 272 272 272 273 273 273 272 272 272 272 272 272 272 273 273 273
265 265 266 266 266 267 267 267 268 268 268 269 269 269 269 269 270 270 270 270 271 271 271 271 271 271 271 271 271 271 271 272 272 272 272 272 272 272 272 272 272 272 272 272 272 272 272 272 272 273 273 273
265 266 266 267 267 267 267 267 268 268 268 269 269 269 269 269 269 270 270 270 270 270 271 271 271 271 271 271 271 271 271 271 271 272 272 272 272 271 271 271 271 271 271 271 271 271 271 272 272 272 272 272
265 266 266 266 267 267 267 267 267 268 268 268 269 269 269 269 269 269 269 269 270 270 271 271 271 271 271 271 271 271 271 271 271 271 271 271 271 271 271 271 271 271 271 271 271 271 271 271 271 271 272 272
265 266 266 266 266 266 267 267 267 267 268 268 268 269 269 269 269 269 269 269 270 270 271 271 271 271 271 271 270 270 271 271 271 271 271 271 271 271 271 271 270 270 270 270 270 270 270 271 271 271 271 271
265 266 266 266 266 267 267 267 267 267 268 268 268 268 269 269 269 269 269 270 270 270 271 271 271 271 270 270 270 270 270 271 271 271 271 271 271 271 271 271 271 270 270 270 270 270 270 270 271 271 271 270
265 266 266 267 267 267 267 267 267 267 267 268 268 268 268 269 269 269 269 270 270 270 270 270 271 271 271 271 271 271 271 271 271 271 271 271 271 271 271 271 271 270 270 270 270 270 270 270 270 270 270 270
265 265 266 266 266 267 267 267 267 267 267 267 267 268 268 269 269 270 270 270 270 270 271 271 271 271 271 271 271 271 271 271 271 271 271 271 271 271 271 270 270 270 270 270 270 270 270 270 270 270 270 270
264 265 265 265 265 266 266 266 267 267 267 267 267 268 269 269 270 270 271 271 272 272 272 272 272 272 272 272 272 272 272 272 271 271 271 271 270 270 270 270 270 270 271 270 270 270 270 270 270 270 270 270
264 264 265 265 265 266 266 267 267 268 268 268 269 269 270 271 271 272 272 273 273 273 273 272 272 272 272 272 272 272 272 272 272 271 271 271 271 271 271 270 270 271 271 270 270 271 271 271 271 270 270 270
265 265 266 266 266 267 267 268 268 269 269 270 270 271 272 272 273 273 273 273 273 273 273 273 272 272 272 272 272 272 272 272 272 272 272 272 272 272 271 271 271 271 271 271 271 271 271 271 271 271 271 271
Height
10760 10761 10762 10763 10763 10764 10764 10765 10765 10765 10765 10764 10764 10764 10765 10764 10764 10765 10765 10766 10767 10767 10767 10767 10767 10767 10767 10766 10766 10766 10766 10766 10766 10766 10767 10768 10768 10768 10767 10767 10767 10767 10766 10766 10766 10766 10766 10766 10766 10767 10767 10767
10752 10753 10754 10755 10755 10756 10757 10757 10758 10758 10758 10757 10757 10757 10758 10757 10757 10757 10757 10757 10758 10758 10758 10758 10758 10758 10758 10758 10758 10758 10758 10758 10758 10758 10758 10759 10759 10759 10759 10759 10758 10758 10757 10757 10757 10757 10757 10757 10757 10757 10757 10757
10743 10744 10746 10747 10747 10749 10750 10750 10750 10750 10750 10749 10749 10749 10749 10748 10748 10748 10749 10748 10749 10749 10750 10750 10750 10750 10749 10749 10749 10749 10749 10749 10749 10748 10749 10749 10749 10750 10750 10750 10749 10749 10749 10749 10749 10748 10748 10748 10748 10748 10748 10748
10735 10736 10738 10739 10740 10741 10742 10742 10743 10743 10743 10742 10742 10742 10741 10740 10740 10740 10740 10740 10740 10740 10741 10741 10741 10740 10740 10740 10740 10739 10739 10739 10739 10738 10739 10739 10739 10740 10740 10740 10740 10740 10740 10740 10740 10739 10738 10738 10738 10738 10738 10739
10728 10729 10730 10732 10732 10733 10734 10734 10734 10735 10736 10736 10735 10734 10733 10733 10733 10732 10733 10732 10732 10732 10731 10731 10731 10731 10731 10731 10730 10730 10729 10729 10729 10729 10729 10729 10729 10730 10730 10731 10731 10730 10730 10730 10730 10730 10729 10729 10729 10729 10729 10729
10720 10721 10722 10724 10724 10725 10725 10725 10725 10726 10727 10727 10725 10724 10725 10725 10725 10725 10725 10724 10724 10723 10723 10723 10723 10722 10722 10721 10721 10720 10720 10719 10719 10719 10719 10719 10720 10720 10720 10721 10720 10720 10720 10720 10720 10720 10719 10719 10719 10719 10719 10719
10712 10713 10714 10715 10715 10715 10715 10716 10716 10717 10718 10717 10715 10714 10715 10715 10716 10716 10716 10715 10715 10714 10714 10714 10714 10713 10712 10712 10711 10711 10710 10709 10709 10709 10709 10709 10710 10710 10710 10710 10710 10709 10709 10709 10709 10709 10709 10708 10708 10708 10708 10708
10703 10704 10705 10705 10705 10705 10706 10706 10706 10707 10708 10707 10706 10705 10705 10705 10706 10706 10706 10706 10705 10704 10705 10704 10704 10703 10703 10702 10701 10700 10700 10699 10699 10698 10699 10699 10699 10700 10700 10700 10700 10699 10698 10698 10698 10698 10698 10697 10697 10697 10697 10697
10694 10695 10695 10695 10695 10695 10696 10696 10696 10696 10697 10696 10695 10694 10694 10695 10695 10695 10695 10694 10694 10694 10695 10694 10694 10693 10692 10692 10691 10690 10689 10689 10689 10688 10688 10689 10689 10689 10689 10689 10689 10688 10687 10687 10687 10687 10686 10686 10686 10686 10686 10686
10685 10685 10685 10685 10685 10685 10685 10685 10685 10685 10685 10685 10684 10683 10682 10683 10684 10684 10683 10683 10683 10684 10684 10684 10683 10682 10681 10681 10680 10679 10679 10679 10678 10678 10678 10678 10678 10678 10678 10678 10678 10678 10677 10676 10675 10675 10675 10675 10674 10674 10674 10674
10675 10674 10674 10674 10674 10674 10674 10675 10674 10674 10674 10674 10673 10671 10671 10672 10673 10672 10671 10672 10673 10673 10673 10673 10672 10671 10670 10670 10669 10669 10668 10667 10667 10667 10667 10667 10667 10667 10667 10667 10667 10667 10666 10665 10664 10664 10663 10663 10663 10662 10662 10662
10664 10663 10663 10662 10663 10663 10663 10664 10663 10663 10664 10663 10661 10660 10660 10661 10662 10661 10660 10661 10662 10662 10662 10661 10660 10660 10659 10659 10658 10658 10657 10656 10655 10655 10655 10655 10656 10656 10656 10655 10655 10655 10654 10653 10652 10651 10652 10652 10651 10651 10650 10650
10652 10653 10652 10651 10650 10651 10652 10652 10651 10652 10653 10652 10650 10649 10649 10650 10651 10650 10649 10649 10650 10650 10649 10649 10649 10648 10648 10647 10647 10646 10645 10644 10644 10643 10643 10644 10644 10644 10644 10643 10643 10643 10642 10641 10640 10639 10639 10639 10639 10639 10638 10638
10641 10642 10642 10640 10639 10641 10641 10640 10640 10641 10641 10640 10638 10637 10638 10639 10639 10638 10637 10637 10637 10637 10637 10637 10637 10637 10636 10635 10635 10634 10633 10632 10632 10632 10632 10632 10632 10632 10631 10631 10631 10630 10630 10629 10628 10627 10626 10626 10626 10626 10626 10625
10628 10630 10631 10630 10629 10630 10630 10629 10630 10630 10629 10629 10627 10626 10627 10628 10627 10626 10625 10625 10624 10624 10625 10624 10625 10625 10624 10623 10622 10621 10621 10620 10620 10620 10619 10619 10619 10619 10618 10618 10618 10618 10618 10617 10616 10615 10614 10613 10613 10613 10613 10613
10617 10618 10619 10620 10620 10619 10620 10619 10618 10618 10617 10617 10616 10615 10616 10615 10615 10613 10612 10612 10612 10612 10612 10612 10613 10612 10611 10610 10609 10609 10608 10607 10607 10607 10606 10606 10605 10605 10605 10605 10605 10605 10605 10604 10604 10603 10602 10601 10600 10600 10601 10600
10606 10606 10607 10609 10609 10608 10608 10608 10607 10606 10605 10605 10604 10603 10603 10602 10602 10600 10599 10599 10599 10599 10600 10600 10600 10599 10598 10597 10596 10596 10595 10594 10594 10593 10592 10592 10591 10591 10591 10591 10591 10591 10591 10591 10591 10591 10590 10589 10588 10588 10588 10588
10595 10595 10595 10596 10597 10596 10596 10596 10595 10594 10593 10592 10591 10590 10590 10589 10588 10587 10586 10587 10587 10586 10587 10587 10586 10585 10584 10583 10583 10582 10581 10580 10580 10580 10579 10578 10577 10578 10578 10578 10578 10577 10577 10578 10578 10578 10577 10577 10576 10575 10575 10576
10585 10584 10584 10584 10584 10584 10584 10583 10582 10581 10579 10579 10578 10578 10577 10576 10576 10575 10574 10574 10574 10573 10573 10572 10572 10571 10569 10569 10569 10568 10568 10567 10566 10566 10565 10564 10564 10564 10564 10564 10564 10564 10564 10564 10564 10564 10564 10563 10563 10561 10561 10561
10574 10573 10572 10572 10572 10571 10571 10570 10569 10567 10566 10566 10566 10565 10564 10564 10564 10562 10561 10560 10560 10559 10559 10559 10558 10557 10556 10556 10555 10555 10554 10553 10553 10552 10552 10552 10551 10551 10551 10551 10550 10550 10551 10550 10550 10550 10550 10549 10548 10547 10547 10547
10562 10561 10560 10559 10559 10559 10558 10557 10556 10555 10555 10555 10553 10552 10552 10551 10551 10550 10548 10546 10546 10546 10546 10546 10545 10544 10542 10542 10542 10541 10541 10541 10540 10539 10539 10539 10539 10538 10538 10537 10537 10536 10536 10536 10536 10535 10535 10534 10534 10534 10534 10533
10549 10548 10547 10546 10546 10546 10546 10544 10543 10543 10543 10542 10540 10539 10538 10538 10538 10537 10535 10533 10533 10533 10533 10533 10532 10531 10529 10528 10528 10528 10528 10528 10527 10526 10526 10526 10525 10524 10524 10523 10522 10521 10521 10521 10521 10521 10520 10521 10520 10520 10520 10519
10536 10535 10535 10534 10533 10533 10532 10531 10530 10530 10530 10529 10527 10525 10523 10524 10525 10524 10522 10521 10520 10519 10519 10519 10519 10518 10517 10516 10515 10515 10515 10515 10513 10513 10512 10512 10511 10510 10509 10508 10507 10507 10507 10507 10507 10507 10507 10507 10507 10506 10506 10506
10523 10523 10522 10521 10521 10520 10519 10518 10518 10518 10517 10516 10514 10511 10510 10510 10511 10510 10509 10507 10507 10507 10507 10507 10508 10507 10505 10503 10502 10502 10502 10501 10500 10499 10499 10498 10496 10496 10495 10494 10493 10493 10492 10493 10493 10492 10492 10492 10492 10492 10492 10492
10510 10509 10509 10509 10508 10507 10506 10506 10506 10505 10504 10503 10501 10499 10497 10496 10495 10495 10496 10496 10495 10496 10495 10495 10495 10494 10492 10490 10488 10488 10487 10487 10486 10486 10485 10483 10482 10482 10481 10480 10479 10478 10478 10479 10478 10477 10477 10477 10478 10478 10478 10478
10496 10496 10496 10496 10495 10494 10493 10493 10493 10492 10491 10490 10489 10486 10483 10482 10481 10482 10483 10484 10483 10483 10482 10482 10481 10479 10477 10475 10475 10474 10474 10473 10473 10472 10471 10469 10468 10468 10467 10466 10464 10464 10464 10463 10462 10461 10462 10464 10463 10463 10463 10463
10484 10484 10484 10483 10483 10481 10480 10480 10479 10478 10478 10477 10476 10473 10471 10469 10469 10469 10469 10469 10469 10468 10468 10468 10466 10465 10462 10461 10460 10460 10460 10460 10459 10458 10456 10455 10454 10453 10453 10451 10449 10449 10448 10448 10447 10446 10448 10449 10447 10447 10448 10446
10472 10472 10472 10471 10470 10468 10468 10466 10465 10465 10464 10463 10462 10460 10458 10456 10455 10455 10455 10454 10454 10454 10453 10453 10452 10451 10449 10447 10446 10445 10445 10445 10444 10443 10442 10440 10439 10438 10438 10435 10433 10433 10433 10434 10432 10431 10433 10432 10431 10433 10432 10428
10460 10460 10459 10458 10457 10456 10454 10453 10451 10451 10450 10448 10448 10447 10445 10443 10442 10441 10440 10439 10439 10439 10438 10438 10437 10436 10435 10433 10431 10430 10430 10429 10428 10427 10426 10424 10422 10422 10422 10420 10418 10418 10419 10419 10416 10415 10416 10416 10416 10418 10414 10411
10447 10447 10446 10445 10444 10443 10441 10440 10438 10437 10435 10435 10435 10434 10432 10430 10428 10427 10426 10425 10424 10424 10423 10423 10422 10421 10420 10418 10416 10415 10414 10413 10412 10411 10410 10408 10407 10407 10406 10405 10404 10404 10403 10402 10400 10400 10400 10400 10400 10401 10399 10396
10434 10434 10433 10432 10431 10430 10428 10427 10425 10423 10422 10422 10421 10421 10419 10416 10414 10412 10411 10409 10409 10408 10407 10407 10407 10406 10405 10403 10401 10399 10398 10397 10395 10394 10393 10392 10392 10391 10390 10389 10390 10388 10386 10385 10387 10386 10384 10384 10384 10384 10384 10382